Showing default

IRIDIUM 171, 43929

Orbit data source: Space-Track

IRIDIUM 171, 43929 is a payload satellite owned by Iridium (US) in LEO that was launched on Fri, 11 Jan 2019 UTC via an FALCON 9 launch vehicle from the Air Force Western Test Range (AFWTR). Payload-class satellites include a variety of spacecraft equipped with specific instruments for various scientific and technological missions. These include communications satellites like Starlink; space stations such as the ISS; scientific satellites like the Hubble; Earth observation satellites from companies like Planet Labs, Umbra, and HawkEye 360; GPS; miniature CubeSats for education and research; and military/defense satellites.

Loading next visibility...
Identifier
43929, 2019-002H
Orbit
LEO
Country
Flag of USUS
Related business
Manufacturer
NGIS SSG Gilbert
Mission
Operational Commercial Communications
Bus & Motor
ELITEBUS, Unknown motor
Mass
860 kg wet, 700 kg dry
Launch date (UTC)
2019-01-11 (7 years ago)
Launch vehicle
FALCON 9
Launch site
Air Force Western Test Range (AFWTR)
Object type
Payload
Rocket body
Debris
Shape & HBR
Trap Box + 2 Pan, 4.8 m
Radar Cross Section
10.154 m², Large (>1 m²)

Expand to show TLE details & history
Last TLE update: 1 day ago

TLE from 1 day ago
0 IRIDIUM 171
1 43929U 19002H   25348.76313618  .00000247  00000-0  81259-4 0  9998
2 43929  86.3976  70.9574 0002356  99.7380 260.4082 14.34216005362528
Epoch: 2025-12-14T18:18Z
TLE epoch observation values (Epoch: 2025-12-14T18:18:54.965Z)
Latitude
-0.00005°
Longitude
72.55699°
Altitude
781.005 km
Speed
7.463 km/s
True Right ascension
04h 43m 49s
True Declination
0° 00' 00"
Sunlit
Object was in full shadow at epoch
Visualization orbit readout
Latitude
Unknown
Longitude
Unknown
Altitude
Unknown
Speed
Unknown
Apparent Right ascension
Unknown
Apparent Declination
Unknown
Sunlit
N/A
Visualization observer readout
Local Sidereal Time
17:45:23
Azimuth
Unknown
Elevation
Unknown
Doppler factor
Unknown
Orbital elements
Apogee altitude
776.323 km
Perigee altitude
772.952 km
Semi-major axis
7,152.774 km
Eccentricity
0.00024
Inclination
86.3976°
RAAN
70.9574°
Arg. of periapsis
99.738°
True anomaly
260.38158°
Mean anomaly
260.4082°
Eccentric anomaly
260.39489°
Mean motion
3.58783 °/min
Orbital period
100.34 mins
BSTAR
0.000081259
Loading maneuver chart data...
Computing Atmospheric mass density...
Loading historical data...
Loading historical data...
Loading historical data...
Loading historical data...
Loading historical data...
Loading historical data...
Loading historical data...

Documentation

Showing up to 5 results
|